Location: Paddlesworth
(51.1000°N, 1.1333°E)
Time: 13:40:24
(UTC+00:00)

Cosmos 2344 - Pass Details

Date: 11 May 2021
Orbit: 1239 x 3003 km, 63.3° (Epoch: 19 June)

Event Time Altitude Azimuth Distance (km) Brightness Sun altitude
Rises 23:26:20 0° 314° (NW) 4,438 7.2 -20.5°
Reaches altitude 10° 23:28:54 10° 315° (NW) 3,581 6.6 -20.6°
Maximum altitude 23:37:47 85° 45° (NE) 1,787 4.3 -20.7°
Drops below altitude 10° 23:50:12 10° 135° (SE) 4,874 6.2 -20.8°
Enters shadow 23:51:08 - 135° (SE) 5,157 6.3 -20.8°
